Content
SEND FEEDBACK

Daily
Averages
Monthly
Summary
United States of America

MANGILAO, GUAM


Home > North America > United States > Guam
Elevation: 60 feet     Latitude: 13 27N     Longitude: 144 49E

WEATHER
 
SELECT A DAY
Number of Records: 341,964;   Date Range: 1/1/95 - 7/26/14
 
SHARE

PRINT THIS DATA

[ ← Previous Day ]
WEATHER ALMANAC - JUNE 13, 2013
[ Next Day → ]
[ °C ]   °F
Weather ElementAverageHighLow
Temperature80.7 °F86 °F (9:36 am)78.6 °F (5:55 am)
Dewpoint76.5 °F78.8 °F (9:50 am)73 °F (1:55 am)
Humidity87.2 %94 % (10:08 am)74 % (9:36 am)
Barometer29.78 in29.81 in (11:12 am)29.73 in (3:24 pm)
Wind Speed14.3 mph20.7 mph (10:39 am)
Wind Gust28.8 mph (11:07 am)
Weather ElementAverage
Visibility9 mi
Wind DirectionE (90.3 °)

Weather ElementTotal
Precipitation0.10 in
Cooling Degree Days17.3 (Base 65)
Growing Degree Days32.3 (Base 50)
Averaged from 89 records on June 13, 2013
WEATHER CONDITIONS BREAKOUT
WIND DIRECTION BREAKOUT
WEATHER BY HOUR - JUNE 13, 2013
[ °C ]   °F
Local TimeTemperatureDewpointHumidityBarometerVisibilityWind DirectionWind SpeedGust SpeedPrecipitationEventsConditions
1:55 AM79.9 °F73.0 °F80 %29.77 in10.0 miENE (70°)13.8 mphOvercast
2:55 AM79.3 °F73.2 °F81 %29.77 in10.0 miENE (60°)10.4 mphMostly Cloudy
3:55 AM79.5 °F74.1 °F83 %29.76 in10.0 miNE (50°)11.5 mphScattered Clouds
4:06 AM80.6 °F73.4 °F79 %29.76 in10.0 miNE (50°)12.7 mphMostly Cloudy
4:27 AM78.8 °F75.2 °F89 %29.76 in10.0 miENE (60°)12.7 mphScattered Clouds
4:47 AM78.8 °F75.2 °F89 %29.76 in10.0 miNE (50°)10.4 mphMostly Cloudy
4:49 AM78.8 °F75.2 °F89 %29.76 in10.0 miNE (50°)11.5 mphScattered Clouds
4:55 AM79.5 °F74.7 °F85 %29.75 in10.0 miNE (50°)10.4 mphScattered Clouds
5:55 AM78.6 °F74.5 °F87 %29.76 in10.0 miENE (60°)10.4 mphPartly Cloudy
6:55 AM81.0 °F75.4 °F83 %29.78 in10.0 miENE (60°)11.5 mphScattered Clouds
7:04 AM80.6 °F75.2 °F84 %29.78 in10.0 miNE (50°)13.8 mphMostly Cloudy
7:15 AM80.6 °F75.2 °F84 %29.78 in10.0 miENE (60°)12.7 mphRainLight Rain
7:27 AM80.6 °F77.0 °F89 %29.78 in10.0 miENE (60°)16.1 mphMostly Cloudy
7:30 AM80.6 °F77.0 °F89 %29.78 in10.0 miENE (60°)15.0 mphMostly Cloudy
7:46 AM82.4 °F77.0 °F84 %29.78 in10.0 miENE (60°)15.0 mphMostly Cloudy
7:47 AM82.4 °F77.0 °F84 %29.78 in10.0 miENE (60°)13.8 mphScattered Clouds
7:48 AM82.4 °F77.0 °F84 %29.78 in10.0 miENE (60°)12.7 mphMostly Cloudy
7:55 AM82.9 °F77.0 °F82 %29.78 in10.0 miENE (60°)15.0 mph0.00 inMostly Cloudy
7:56 AM82.4 °F77.0 °F84 %29.78 in10.0 miENE (60°)13.8 mphScattered Clouds
8:39 AM84.2 °F77.0 °F79 %29.78 in10.0 miEast (90°)13.8 mphMostly Cloudy
8:43 AM84.2 °F77.0 °F79 %29.78 in10.0 miEast (90°)11.5 mphMostly Cloudy
8:55 AM85.3 °F77.2 °F77 %29.78 in10.0 miEast (100°)13.8 mph20.7 mphMostly Cloudy
9:16 AM84.2 °F77.0 °F79 %29.79 in10.0 miEast (100°)17.3 mphMostly Cloudy
9:36 AM86.0 °F77.0 °F74 %29.79 in10.0 miEast (100°)17.3 mph21.9 mphMostly Cloudy
9:50 AM84.2 °F78.8 °F84 %29.80 in10.0 miEast (100°)17.3 mph24.2 mphMostly Cloudy
9:55 AM83.7 °F77.9 °F83 %29.80 in6.0 miEast (100°)18.4 mph24.2 mph0.00 inRainLight Rain
9:56 AM84.2 °F78.8 °F84 %29.79 in4.0 miESE (110°)16.1 mph24.2 mphRainLight Rain
9:58 AM82.4 °F78.8 °F89 %29.79 in3.0 miEast (100°)16.1 mph24.2 mphRainLight Rain
10:08 AM80.6 °F78.8 °F94 %29.80 in8.0 miEast (100°)15.0 mphMostly Cloudy
10:13 AM80.6 °F78.8 °F94 %29.80 in10.0 miEast (100°)12.7 mphMostly Cloudy
10:39 AM80.6 °F78.8 °F94 %29.80 in9.0 miEast (100°)20.7 mph27.6 mphMostly Cloudy
10:41 AM80.6 °F77.0 °F89 %29.80 in6.0 miEast (100°)17.3 mph27.6 mphRainLight Rain
10:47 AM78.8 °F77.0 °F94 %29.80 in5.0 miEast (100°)17.3 mph27.6 mphRainLight Rain
10:52 AM78.8 °F77.0 °F94 %29.80 in9.0 miEast (100°)16.1 mph24.2 mphLight Drizzle
10:53 AM78.8 °F77.0 °F94 %29.80 in10.0 miEast (100°)15.0 mph24.2 mphMostly Cloudy
10:55 AM79.0 °F76.5 °F92 %29.80 in9.0 miEast (100°)15.0 mph24.2 mph0.01 inMostly Cloudy
10:56 AM78.8 °F77.0 °F94 %29.80 in9.0 miEast (100°)15.0 mph24.2 mphMostly Cloudy
10:57 AM78.8 °F77.0 °F94 %29.80 in10.0 miESE (110°)13.8 mph24.2 mphRainLight Rain
11:07 AM78.8 °F75.2 °F89 %29.80 in10.0 miESE (110°)17.3 mph28.8 mphMostly Cloudy
11:12 AM78.8 °F75.2 °F89 %29.81 in10.0 miESE (110°)18.4 mphMostly Cloudy
11:47 AM78.8 °F75.2 °F89 %29.79 in10.0 miESE (110°)15.0 mphMostly Cloudy
11:55 AM78.8 °F75.7 °F90 %29.79 in10.0 miEast (100°)11.5 mph0.00 inMostly Cloudy
12:28 PM80.6 °F75.2 °F84 %29.79 in10.0 miEast (100°)13.8 mphScattered Clouds
12:55 PM80.2 °F75.6 °F86 %29.78 in10.0 miEast (100°)12.7 mphScattered Clouds
1:55 PM81.5 °F76.3 °F84 %29.75 in10.0 miEast (100°)15.0 mph19.6 mphScattered Clouds
1:58 PM82.4 °F77.0 °F84 %29.75 in10.0 miESE (110°)13.8 mphMostly Cloudy
2:55 PM84.0 °F77.7 °F81 %29.74 in10.0 miEast (100°)16.1 mphOvercast
3:24 PM82.4 °F77.0 °F84 %29.73 in10.0 miESE (110°)18.4 mph23.0 mphMostly Cloudy
3:44 PM82.4 °F77.0 °F84 %29.74 in10.0 miESE (110°)13.8 mphMostly Cloudy
3:55 PM82.0 °F77.5 °F86 %29.74 in10.0 miESE (110°)13.8 mphMostly Cloudy
4:16 PM82.4 °F77.0 °F84 %29.74 in10.0 miEast (90°)16.1 mphScattered Clouds
4:36 PM82.4 °F77.0 °F84 %29.75 in10.0 miEast (80°)18.4 mph24.2 mphMostly Cloudy
4:38 PM82.4 °F77.0 °F84 %29.75 in7.0 miEast (90°)18.4 mph24.2 mphRainLight Rain
4:41 PM80.6 °F75.2 °F84 %29.75 in4.0 miEast (90°)15.0 mph24.2 mphRainLight Rain
4:43 PM80.6 °F75.2 °F84 %29.75 in2.0 miEast (90°)16.1 mph24.2 mphRainHeavy Rain
4:44 PM78.8 °F75.2 °F89 %29.75 in1.8 miEast (90°)15.0 mph24.2 mphRainHeavy Rain
4:49 PM78.8 °F75.2 °F89 %29.75 in2.0 miEast (80°)13.8 mphRainLight Rain
4:51 PM78.8 °F75.2 °F89 %29.75 in2.5 miEast (80°)16.1 mphRainLight Rain
4:52 PM78.8 °F75.2 °F89 %29.75 in3.0 miEast (80°)15.0 mphRainLight Rain
4:55 PM79.0 °F76.1 °F91 %29.75 in9.0 miEast (80°)15.0 mph0.05 inMostly Cloudy
4:59 PM78.8 °F77.0 °F94 %29.75 in10.0 miEast (90°)17.3 mph21.9 mphMostly Cloudy
5:28 PM80.6 °F77.0 °F89 %29.74 in10.0 miEast (100°)13.8 mphMostly Cloudy
5:38 PM80.6 °F77.0 °F89 %29.75 in10.0 miEast (100°)16.1 mphScattered Clouds
5:49 PM80.6 °F77.0 °F89 %29.76 in10.0 miEast (100°)11.5 mphMostly Cloudy
5:55 PM80.6 °F77.0 °F89 %29.76 in10.0 miEast (90°)13.8 mph0.01 inMostly Cloudy
6:02 PM80.6 °F77.0 °F89 %29.76 in10.0 miEast (90°)19.6 mphScattered Clouds
6:55 PM80.1 °F75.9 °F87 %29.77 in10.0 miEast (100°)12.7 mphScattered Clouds
7:25 PM80.6 °F77.0 °F89 %29.77 in10.0 miEast (100°)12.7 mphMostly Cloudy
7:33 PM80.6 °F77.0 °F89 %29.77 in10.0 miEast (100°)12.7 mphMostly Cloudy
7:36 PM80.6 °F77.0 °F89 %29.77 in10.0 miEast (100°)11.5 mphLight Drizzle
7:39 PM80.6 °F77.0 °F89 %29.77 in10.0 miEast (90°)10.4 mphLight Drizzle
7:45 PM80.6 °F77.0 °F89 %29.78 in10.0 miEast (90°)13.8 mph20.7 mphMostly Cloudy
7:51 PM80.6 °F77.0 °F89 %29.78 in10.0 miEast (90°)13.8 mphMostly Cloudy
7:52 PM80.6 °F77.0 °F89 %29.78 in10.0 miEast (90°)13.8 mphMostly Cloudy
7:55 PM80.2 °F76.8 °F89 %29.78 in10.0 miEast (80°)16.1 mph0.00 inMostly Cloudy
7:59 PM80.6 °F77.0 °F89 %29.78 in4.0 miEast (100°)18.4 mph24.2 mphRainLight Rain
8:10 PM78.8 °F75.2 °F89 %29.79 in8.0 miEast (90°)12.7 mphOvercast
8:19 PM78.8 °F75.2 °F89 %29.79 in10.0 miESE (110°)16.1 mphMostly Cloudy
8:55 PM79.0 °F76.3 °F91 %29.79 in10.0 miEast (100°)11.5 mph0.03 inMostly Cloudy
9:37 PM80.6 °F77.0 °F89 %29.79 in10.0 miESE (110°)13.8 mphMostly Cloudy
9:55 PM79.9 °F77.4 °F92 %29.80 in10.0 miEast (100°)12.7 mphMostly Cloudy
10:43 PM80.6 °F77.0 °F89 %29.80 in10.0 miESE (120°)13.8 mphMostly Cloudy
10:44 PM80.6 °F77.0 °F89 %29.80 in10.0 miESE (120°)15.0 mphMostly Cloudy
10:49 PM80.6 °F77.0 °F89 %29.80 in10.0 miESE (110°)11.5 mphMostly Cloudy
10:54 PM80.6 °F77.0 °F89 %29.80 in10.0 miESE (110°)12.7 mphMostly Cloudy
10:55 PM79.9 °F77.4 °F92 %29.80 in10.0 miESE (110°)12.7 mphMostly Cloudy
11:33 PM80.6 °F77.0 °F89 %29.80 in10.0 miSE (130°)13.8 mphMostly Cloudy
11:45 PM80.6 °F77.0 °F89 %29.80 in10.0 miESE (110°)9.2 mphMostly Cloudy
11:55 PM79.7 °F77.5 °F93 %29.80 in10.0 miEast (100°)8.1 mphMostly Cloudy
Hourly data recorded from PGUA, located miles away from Mangilao, Guam







STORIES FROM OUR PARTNERS